indice_tiempo,nivel_general
2015-12-01,100.0
2016-01-01,108.78717907264219
2016-02-01,114.17088428630503
2016-03-01,117.00064795567658
2016-04-01,118.81257592587166
2016-05-01,123.09935363533172
2016-06-01,126.68192195378121
2016-07-01,130.20835210773532
2016-08-01,130.72259035745154
2016-09-01,131.28055342356458
2016-10-01,132.05936685262566
2016-11-01,133.678918859084
2016-12-01,134.5289914765469
2017-01-01,136.54590731224377
2017-02-01,138.82611252136985
2017-03-01,140.1063628474242
2017-04-01,140.75434995069008
2017-05-01,141.96122803498693
2017-06-01,144.61686354956535
2017-07-01,148.311344172517
2017-08-01,151.15729214852485
2017-09-01,152.6686030233649
2017-10-01,154.91056203698489
2017-11-01,157.30286911009856
2017-12-01,159.88571353640413
2018-01-01,167.1908680259102
2018-02-01,175.29547139727555
2018-03-01,178.68843528160892
2018-04-01,181.8925388769282
2018-05-01,195.55041017068828
2018-06-01,208.32434958625137
2018-07-01,218.18092421955836
2018-08-01,228.85916934960517
2018-09-01,265.5738589612281
2018-10-01,273.60565836903214
2018-11-01,273.89892907752653
2018-12-01,277.39935294632306
2019-01-01,278.9789497959669
2019-02-01,288.3634789978899
2019-03-01,300.2045079752881
2019-04-01,313.9611753726114
2019-05-01,329.4934559466275
2019-06-01,334.94023434959956
2019-07-01,335.19859720381254
2019-08-01,372.7857902776771
2019-09-01,388.32093373494314
2019-10-01,402.34527996059893
2019-11-01,424.0279008516494
2019-12-01,439.656650804617
2020-01-01,446.276657286322
2020-02-01,451.26123606663026
2020-03-01,455.5859362071313
2020-04-01,449.68453200359056
2020-05-01,451.32869372994327
2020-06-01,467.84454369481136
2020-07-01,484.3679825340194
2020-08-01,504.248204290043
2020-09-01,522.8734298547995
2020-10-01,547.2657803407797
2020-11-01,570.0944153468845
2020-12-01,595.1897264576135
2021-01-01,628.266822567963
2021-02-01,666.5149176730787
2021-03-01,692.4485623097028
2021-04-01,725.4504887411008
2021-05-01,748.8280032300928
2021-06-01,772.2691500395144
2021-07-01,789.5399859562176
2021-08-01,809.3716874071739
2021-09-01,831.9936699701915
2021-10-01,855.6824717740037
2021-11-01,880.8886461237645
2021-12-01,900.7803666606756
2022-01-01,934.3361900233695
2022-02-01,978.6032569702859
2022-03-01,1040.5419938330967
2022-04-01,1101.9533166314045
2022-05-01,1158.9222798841117
2022-06-01,1214.824148470205
2022-07-01,1300.837282675061
2022-08-01,1407.1975423211811
2022-09-01,1484.3423363897232
2022-10-01,1555.2267205418964
2022-11-01,1653.1188909161824
2022-12-01,1754.575551529618
2023-01-01,1868.3020153484315
2023-02-01,1999.6036244611848
2023-03-01,2100.7589759647108
2023-04-01,2246.410649891486
2023-05-01,2405.5159024875934
2023-06-01,2585.6667905268096
2023-07-01,2767.1062720711398
2023-08-01,3284.864260787335
2023-09-01,3587.4863773313264
2023-10-01,3858.68277968591
2023-11-01,4287.0202983057015
2023-12-01,6603.3692409574605
2024-01-01,7788.8552670587005
